FW6610 Weather Reports


Display with metric or nautical units.
time (UTC)temp
F
wind
direction
speed
MPH
gust
MPH
rain 1hr
in
rain 24hr
in
rain mn
in
humidity
%
barometer
mb
20260504151026 64 171 3.0 14.0 0.00 0.00 0.00 38 1009.9
20260504150526 64 289 5.0 14.0 0.00 0.00 0.00 40 1010.0
20260504141029 62 203 2.0 6.0 0.00 0.00 0.00 43 1010.8
20260504140529 62 220 1.0 11.0 0.00 0.00 0.00 42 1010.8
20260504130530 59 107 1.0 7.0 0.00 0.00 0.00 52 1010.7
20260504110529 37 0 0.0 0.0 0.00 0.00 0.00 88 1011.6
20260504100529 35 0 0.0 0.0 0.00 0.00 0.00 87 1011.4
20260504090116 38 0 0.0 0.0 0.00 0.00 0.00 78 1011.1
20260504081556 40 176 0.0 0.0 0.00 0.00 0.00 70 1011.2
20260504081029 41 175 0.0 0.0 0.00 0.00 0.00 69 1011.3
20260504080746 41 0 0.0 0.0 0.00 0.00 0.00 68 1011.2
20260504070124 44 0 0.0 2.0 0.00 0.00 0.00 63 1011.2
20260504050530 41 0 0.0 0.0 0.00 0.00 0.00 71 1011.5
20260504045529 41 0 0.0 0.0 0.00 0.00 0.00 72 1011.5
20260504045029 41 0 0.0 0.0 0.00 0.00 0.00 73 1011.5
20260504044542 41 0 0.0 0.0 0.00 0.00 0.00 73 1011.5
20260504044028 41 0 0.0 0.0 0.00 0.00 0.00 74 1011.5
20260504043529 41 0 0.0 0.0 0.00 0.00 0.00 73 1011.5
20260504043043 41 0 0.0 0.0 0.00 0.00 0.00 72 1011.6
20260504042529 41 0 0.0 0.0 0.00 0.00 0.00 72 1011.5
20260504042030 41 0 0.0 0.0 0.00 0.00 0.00 73 1011.4
20260504041543 41 0 0.0 0.0 0.00 0.00 0.00 74 1011.4
20260504041029 42 0 0.0 0.0 0.00 0.00 0.00 73 1011.4
20260504040530 42 0 0.0 0.0 0.00 0.00 0.00 70 1011.3
20260504040042 42 0 0.0 0.0 0.00 0.00 0.00 69 1011.3
20260504035531 42 0 0.0 0.0 0.00 0.00 0.00 68 1011.3
20260504035029 42 0 0.0 0.0 0.00 0.00 0.00 68 1011.4
20260504034544 42 0 0.0 0.0 0.00 0.00 0.00 68 1011.4
20260504034028 41 0 0.0 0.0 0.00 0.00 0.00 68 1011.3
20260504033528 41 0 0.0 1.0 0.00 0.00 0.00 69 1011.2
20260504033037 41 0 0.0 1.0 0.00 0.00 0.00 70 1011.2
20260504032528 41 0 0.0 1.0 0.00 0.00 0.00 68 1011.2
20260504032030 41 210 0.0 1.0 0.00 0.00 0.00 68 1011.1
20260504031543 41 208 0.0 1.0 0.00 0.00 0.00 69 1011.1
20260504031030 41 208 0.0 1.0 0.00 0.00 0.00 68 1011.2
20260504030530 40 208 0.0 1.0 0.00 0.00 0.00 67 1011.2
20260504030041 41 216 0.0 1.0 0.00 0.00 0.00 68 1011.2
20260504025529 40 214 0.0 1.0 0.00 0.00 0.00 66 1011.2
20260504025029 40 207 0.0 1.0 0.00 0.00 0.00 66 1011.0
20260504024546 41 219 0.0 1.0 0.00 0.00 0.00 65 1011.2
20260504024030 41 219 0.0 1.0 0.00 0.00 0.00 65 1011.3
20260504023531 41 214 0.0 2.0 0.00 0.00 0.00 66 1011.2
20260504023046 41 214 1.0 2.0 0.00 0.00 0.00 62 1011.2
20260504022529 41 214 0.0 2.0 0.00 0.00 0.00 64 1011.3
20260504022030 42 204 0.0 2.0 0.00 0.00 0.00 63 1011.3
20260504021541 42 0 0.0 2.0 0.00 0.00 0.00 62 1011.1
20260504021028 42 213 1.0 1.0 0.00 0.00 0.00 60 1011.1
20260504020528 42 210 1.0 1.0 0.00 0.00 0.00 59 1011.1
20260504020043 42 208 0.0 1.0 0.00 0.00 0.00 59 1011.1
20260504015529 42 205 0.0 1.0 0.00 0.00 0.00 59 1010.9
20260504015030 43 204 0.0 2.0 0.00 0.00 0.00 58 1010.8
20260504014541 43 0 1.0 5.0 0.00 0.00 0.00 56 1010.8
20260504014030 43 255 1.0 5.0 0.00 0.00 0.00 56 1010.7
20260504013529 43 0 0.0 1.0 0.00 0.00 0.00 57 1010.6
20260504013055 43 212 0.0 1.0 0.00 0.00 0.00 56 1010.5
20260504012529 43 0 0.0 2.0 0.00 0.00 0.00 61 1010.5
20260504012029 43 221 0.0 2.0 0.00 0.00 0.00 58 1010.5
20260504011536 43 205 0.0 2.0 0.00 0.00 0.00 57 1010.4
20260504011028 43 205 0.0 2.0 0.00 0.00 0.00 55 1010.3
20260504010528 43 221 0.0 1.0 0.00 0.00 0.00 54 1010.2
20260504010044 44 0 0.0 1.0 0.00 0.00 0.00 52 1010.2
20260504005529 44 202 0.0 1.0 0.00 0.00 0.00 53 1010.1
20260504005029 45 202 0.0 1.0 0.00 0.00 0.00 51 1010.1
20260504004545 45 202 0.0 1.0 0.00 0.00 0.00 51 1010.0
20260504004029 45 201 0.0 1.0 0.00 0.00 0.00 48 1009.9
20260504003530 46 199 0.0 1.0 0.00 0.00 0.00 49 1009.8
20260504003041 47 207 0.0 1.0 0.00 0.00 0.00 50 1009.7
20260504002529 47 0 0.0 1.0 0.00 0.00 0.00 45 1009.6
20260504002029 48 207 0.0 1.0 0.00 0.00 0.00 46 1009.5
20260504001547 49 236 0.0 1.0 0.00 0.00 0.00 40 1009.5
20260504001029 50 0 0.0 4.0 0.00 0.00 0.00 37 1009.5
20260504000530 51 0 0.0 4.0 0.00 0.00 0.00 37 1009.4
20260504000043 51 310 0.0 4.0 0.00 0.00 0.00 35 1009.4
20260503235529 51 314 1.0 4.0 0.00 0.00 0.00 36 1009.4
20260503235029 52 359 1.0 9.0 0.00 0.00 0.00 35 1009.4
20260503234537 52 334 2.0 9.0 0.00 0.00 0.00 35 1009.2
20260503234029 52 0 1.0 6.0 0.00 0.00 0.00 36 1009.4
20260503233528 52 278 2.0 8.0 0.00 0.00 0.00 34 1009.2
20260503233045 52 301 4.0 8.0 0.00 0.00 0.00 34 1009.1
20260503232528 52 328 1.0 5.0 0.00 0.00 0.00 35 1009.3
20260503232029 53 323 2.0 9.0 0.00 0.00 0.00 35 1009.2
20260503231537 53 319 1.0 9.0 0.00 0.00 0.00 36 1009.2
20260503231032 53 349 3.0 9.0 0.00 0.00 0.00 35 1009.0
20260503230530 53 340 4.0 9.0 0.00 0.00 0.00 39 1009.2
20260503230045 53 104 2.0 6.0 0.00 0.00 0.00 38 1009.1
20260503225529 53 252 2.0 12.0 0.00 0.00 0.00 36 1009.0
20260503225031 54 274 3.0 12.0 0.00 0.00 0.00 36 1009.1
20260503224541 54 335 3.0 9.0 0.00 0.00 0.00 35 1009.1
20260503224028 54 287 3.0 8.0 0.00 0.00 0.00 37 1009.0
20260503223529 55 328 2.0 9.0 0.00 0.00 0.00 38 1009.0
20260503223042 54 333 3.0 9.0 0.00 0.00 0.00 39 1009.2
20260503222528 55 349 2.0 7.0 0.00 0.00 0.00 38 1009.2
20260503222030 55 322 2.0 9.0 0.00 0.00 0.00 37 1009.1
20260503221536 55 61 2.0 11.0 0.00 0.00 0.00 38 1009.1
20260503221029 55 307 4.0 11.0 0.00 0.00 0.00 38 1009.1
20260503220529 55 328 4.0 18.0 0.00 0.00 0.00 37 1009.1
20260503220035 54 281 4.0 18.0 0.00 0.00 0.00 39 1009.1
20260503215529 54 352 4.0 14.0 0.00 0.00 0.00 38 1009.1
20260503215029 54 320 3.0 15.0 0.00 0.00 0.00 41 1009.0
20260503214545 54 350 6.0 15.0 0.00 0.00 0.00 39 1009.1
20260503214029 54 274 5.0 13.0 0.00 0.00 0.00 40 1009.3
20260503213528 53 18 5.0 14.0 0.00 0.00 0.00 39 1009.0
20260503213045 53 164 4.0 14.0 0.00 0.00 0.00 42 1009.2
20260503212528 53 11 6.0 15.0 0.00 0.00 0.00 41 1009.0
20260503212029 53 285 7.0 15.0 0.00 0.00 0.00 41 1009.2
20260503211540 54 286 6.0 15.0 0.00 0.00 0.00 41 1009.1
20260503211028 54 304 5.0 11.0 0.00 0.00 0.00 42 1009.1
20260503210528 54 304 3.0 12.0 0.00 0.00 0.00 40 1009.1
20260503210040 53 359 5.0 15.0 0.00 0.00 0.00 41 1009.1
20260503205529 53 332 8.0 15.0 0.00 0.00 0.00 43 1009.1
20260503205029 53 334 5.0 13.0 0.00 0.00 0.00 40 1008.9
20260503204544 53 303 4.0 16.0 0.00 0.00 0.00 41 1008.9
20260503204028 53 356 3.0 16.0 0.00 0.00 0.00 41 1009.0
20260503203533 53 319 7.0 12.0 0.00 0.00 0.00 40 1008.9
20260503203047 53 322 6.0 11.0 0.00 0.00 0.00 45 1008.8
20260503202529 53 317 5.0 15.0 0.00 0.00 0.00 43 1008.9
20260503202029 52 282 5.0 15.0 0.00 0.00 0.00 41 1008.8
20260503201546 53 309 6.0 15.0 0.00 0.00 0.00 42 1009.0
20260503201028 52 258 6.0 15.0 0.00 0.00 0.00 43 1009.0
20260503200528 52 1 5.0 12.0 0.00 0.00 0.00 42 1008.8
20260503200044 52 323 5.0 10.0 0.00 0.00 0.00 43 1009.0
20260503195528 52 28 4.0 17.0 0.00 0.00 0.00 43 1008.9
20260503195028 52 10 5.0 22.0 0.00 0.00 0.00 43 1008.9
20260503194545 52 319 7.0 22.0 0.00 0.00 0.00 42 1009.0
20260503194028 52 356 4.0 17.0 0.00 0.00 0.00 43 1009.1
20260503193528 52 278 7.0 12.0 0.00 0.00 0.00 42 1008.9
20260503193046 52 312 4.0 11.0 0.00 0.00 0.00 42 1009.0
20260503192529 52 6 4.0 11.0 0.00 0.00 0.00 42 1009.0
20260503192034 52 297 4.0 10.0 0.00 0.00 0.00 43 1009.0
20260503191604 52 304 6.0 11.0 0.00 0.00 0.00 42 1009.0
20260503191033 52 312 4.0 12.0 0.00 0.00 0.00 43 1009.1
20260503190534 52 295 4.0 15.0 0.00 0.00 0.00 47 1009.0
20260503190036 52 3 6.0 15.0 0.00 0.00 0.00 43 1009.0
20260503185530 52 235 2.0 12.0 0.00 0.00 0.00 46 1009.0
20260503185030 52 311 4.0 14.0 0.00 0.00 0.00 45 1008.9
20260503184545 51 342 4.0 14.0 0.00 0.00 0.00 46 1008.9
20260503184033 52 25 5.0 12.0 0.00 0.00 0.00 44 1008.9
20260503183534 52 344 6.0 12.0 0.00 0.00 0.00 42 1008.8
20260503183044 52 332 3.0 13.0 0.00 0.00 0.00 46 1008.8
20260503182534 51 312 4.0 13.0 0.00 0.00 0.00 44 1008.7
20260503182030 51 329 4.0 14.0 0.00 0.00 0.00 46 1008.8
20260503181548 51 250 5.0 14.0 0.00 0.00 0.00 45 1008.9
20260503181030 52 24 4.0 14.0 0.00 0.00 0.00 50 1008.9
20260503180530 51 337 4.0 14.0 0.00 0.00 0.00 48 1008.8
20260503180054 51 342 6.0 15.0 0.00 0.00 0.00 46 1009.1
20260503175535 51 312 7.0 15.0 0.00 0.00 0.00 46 1009.1
20260503175032 51 294 5.0 12.0 0.00 0.00 0.00 47 1009.0
20260503174546 52 319 6.0 14.0 0.00 0.00 0.00 46 1008.9
20260503174032 52 8 4.0 16.0 0.00 0.00 0.00 46 1008.7
20260503173532 53 332 6.0 23.0 0.00 0.00 0.00 47 1008.9
20260503173037 52 291 10.0 23.0 0.00 0.00 0.00 47 1008.8
20260503172530 52 318 9.0 20.0 0.00 0.00 0.00 45 1008.7
20260503172030 53 330 8.0 20.0 0.00 0.00 0.00 47 1008.7
20260503171549 53 324 8.0 16.0 0.00 0.00 0.00 43 1008.7
20260503171034 52 347 7.0 15.0 0.00 0.00 0.00 43 1008.7
20260503170531 52 287 8.0 16.0 0.00 0.00 0.00 44 1008.6